Simultaneous Nadir Overpasses (SNOs) Predictions

Prediction of SNOs between FY3D and AQUA Satellite Orbit:

Table of predicted SNOs for the next 14.0 days since TLE Epoch: 1/8/2022
Index Date (FY3D) Time (FY3D) Lat,Lon (FY3D) SZA (FY3D ) Date (AQUA) Time (AQUA) Lat,Lon (AQUA) SZA (AQUA ) Distance(km) Time Diff (sec)
1 01/09/2022 21:04:23 73.45,-141.26 95.48 01/09/2022 21:05:14 73.44,-141.18 95.46 2.60 51
2 01/09/2022 21:54:15 -70.72, 31.36 87.37 01/09/2022 21:53:49 -70.73, 31.31 87.37 2.10 26
3 01/12/2022 12:31:22 -72.91, 168.16 85.50 01/12/2022 12:32:06 -72.92, 168.13 85.50 1.00 44
4 01/12/2022 13:21:29 70.91, -20.73 92.42 01/12/2022 13:20:56 70.91, -20.74 92.42 0.14 33
5 01/15/2022 03:58:33 72.96, 116.28 94.10 01/15/2022 03:59:10 72.96, 116.29 94.09 0.26 37
6 01/15/2022 04:48:39 -70.94, -72.55 88.02 01/15/2022 04:47:58 -70.94, -72.52 88.02 1.33 41
7 01/17/2022 19:25:42 -72.98, 64.47 86.39 01/17/2022 19:26:11 -72.98, 64.50 86.40 1.11 29
8 01/17/2022 20:15:47 70.88,-124.22 91.42 01/17/2022 20:14:59 70.88,-124.18 91.41 1.83 48
9 01/20/2022 10:52:49 72.84, 13.01 92.92 01/20/2022 10:53:11 72.83, 13.03 92.91 0.73 22



Historial Predications of SNOs between FY3D and AQUA
